Clovis, NM

10:48 PM MDT on April 29, 2017 (GMT -0600)
Clovis Municipal

Weather History for KCVN - November, 2012

Change the Weather History Date:

Friday, November 2, 2012

  Actual Average Record
Temperature  
Mean Temperature 62 °F -  
Max Temperature 80 °F 60 °F 83 °F (1924)
Min Temperature 44 °F 35 °F 10 °F (1951)
Degree Days  
Heating Degree Days 3    
Growing Degree Days 12 (Base 50)    
Moisture  
Dew Point 26 °F    
Average Humidity 32    
Maximum Humidity 71    
Minimum Humidity 10    
Precipitation  
Precipitation 0.00 in - - ()
Sea Level Pressure  
Sea Level Pressure 30.03 in    
Wind  
Wind Speed 10 mph (West)    
Max Wind Speed 20 mph    
Max Gust Speed 26 mph    
Visibility 10 miles    
Events      
Averages and records for this station are not official NWS values.
T = Trace of Precipitation, MM = Missing Value Source: NWS Daily Summary

Daily Weather History Graph

Daily Weather History Graph

Search for Another Location

Airport or City:

Trip Planner

Search our weather history database for the weather conditions in past years. The results will help you decide how hot, cold, wet, or windy it might be!

Date:

Astronomy

Nov. 02, 2012 Rise Set
Actual Time 7:13 AM MDT 5:57 PM MDT
Civil Twilight 6:47 AM MDT 6:23 PM MDT
Nautical Twilight 6:18 AM MDT 6:53 PM MDT
Astronomical Twilight 5:48 AM MDT 7:22 PM MDT
Moon 8:51 PM MDT (11/2) 10:30 AM MDT (11/2)
Length of Visible Light 11h 35m
Length of Day
10h 43m
Waning Gibbous, 87% of the Moon is Illuminated
Nov 2
Waning Gibbous
Nov 6
Last Quarter
Nov 13
New
Nov 20
First Quarter
Nov 28
Full

Hourly Weather History & Observations

Time (MDT) Temp. Windchill Dew Point Humidity Pressure Visibility Wind Dir Wind Speed Gust Speed Precip Events Conditions
12:15 AM 50.0 °F - 23.0 °F 35% 30.05 in 10.0 mi SW 5.8 mph - N/A   Clear
12:35 AM 51.8 °F - 24.8 °F 35% 30.04 in 10.0 mi SW 6.9 mph - N/A   Clear
12:55 AM 48.2 °F - 23.0 °F 37% 30.04 in 10.0 mi SW 8.1 mph - N/A   Clear
1:15 AM 48.2 °F - 24.8 °F 40% 30.04 in 10.0 mi WSW 10.4 mph - N/A   Clear
1:35 AM 48.2 °F - 26.6 °F 43% 30.04 in 10.0 mi SW 11.5 mph - N/A   Clear
1:55 AM 48.2 °F - 30.2 °F 50% 30.04 in 10.0 mi SW 11.5 mph - N/A   Clear
2:15 AM 48.2 °F - 30.2 °F 50% 30.04 in 10.0 mi SW 9.2 mph - N/A   Clear
2:35 AM 48.2 °F - 30.2 °F 50% 30.04 in 10.0 mi WSW 10.4 mph - N/A   Clear
2:55 AM 50.0 °F - 35.6 °F 58% 30.04 in 10.0 mi WSW 9.2 mph - N/A   Clear
3:15 AM 48.2 °F - 33.8 °F 58% 30.04 in 10.0 mi West 10.4 mph - N/A   Clear
3:35 AM 46.4 °F 42.9 °F 28.4 °F 50% 30.03 in 10.0 mi West 6.9 mph - N/A   Clear
3:55 AM 46.4 °F 42.9 °F 32.0 °F 57% 30.03 in 10.0 mi West 6.9 mph - N/A   Clear
4:15 AM 51.8 °F - 37.4 °F 58% 30.02 in 10.0 mi WSW 11.5 mph - N/A   Clear
4:35 AM 51.8 °F - 37.4 °F 58% 30.02 in 10.0 mi WSW 12.7 mph - N/A   Clear
4:55 AM 50.0 °F - 37.4 °F 62% 30.02 in 10.0 mi WSW 12.7 mph - N/A   Clear
5:15 AM 48.2 °F - 35.6 °F 62% 30.02 in 10.0 mi WSW 10.4 mph - N/A   Clear
5:35 AM 46.4 °F 42.9 °F 35.6 °F 66% 30.02 in 10.0 mi West 6.9 mph - N/A   Clear
5:55 AM 44.6 °F 39.7 °F 35.6 °F 71% 30.02 in 10.0 mi WNW 9.2 mph - N/A   Clear
6:15 AM 46.4 °F 41.9 °F 33.8 °F 62% 30.02 in 10.0 mi WNW 9.2 mph - N/A   Clear
6:35 AM 44.6 °F 39.2 °F 30.2 °F 57% 30.02 in 10.0 mi WNW 10.4 mph - N/A   Clear
6:55 AM 44.6 °F 38.8 °F 30.2 °F 57% 30.03 in 10.0 mi West 11.5 mph - N/A   Clear
7:15 AM 44.6 °F 38.4 °F 28.4 °F 53% 30.03 in 10.0 mi WNW 12.7 mph - N/A   Clear
7:35 AM 44.6 °F 39.2 °F 28.4 °F 53% 30.03 in 10.0 mi West 10.4 mph - N/A   Clear
7:55 AM 46.4 °F 41.5 °F 28.4 °F 50% 30.04 in 10.0 mi West 10.4 mph - N/A   Clear
8:15 AM 50.0 °F - 30.2 °F 47% 30.04 in 10.0 mi West 9.2 mph - N/A   Clear
8:35 AM 53.6 °F - 28.4 °F 38% 30.05 in 10.0 mi West 6.9 mph - N/A   Clear
8:55 AM 55.4 °F - 30.2 °F 38% 30.05 in 10.0 mi West 4.6 mph - N/A   Clear
9:15 AM 60.8 °F - 28.4 °F 29% 30.05 in 10.0 mi West 10.4 mph - N/A   Clear
9:35 AM 62.6 °F - 28.4 °F 27% 30.06 in 10.0 mi West 10.4 mph - N/A   Clear
9:55 AM 64.4 °F - 28.4 °F 26% 30.05 in 10.0 mi West 11.5 mph - N/A   Clear
10:15 AM 68.0 °F - 30.2 °F 24% 30.06 in 10.0 mi West 13.8 mph - N/A   Clear
10:35 AM 69.8 °F - 28.4 °F 21% 30.06 in 10.0 mi West 13.8 mph - N/A   Clear
10:55 AM 71.6 °F - 28.4 °F 20% 30.05 in 10.0 mi West 15.0 mph - N/A   Clear
11:15 AM 71.6 °F - 24.8 °F 17% 30.05 in 10.0 mi West 13.8 mph 19.6 mph N/A   Clear
11:35 AM 73.4 °F - 24.8 °F 16% 30.05 in 10.0 mi West 10.4 mph 17.3 mph N/A   Clear
11:55 AM 75.2 °F - 24.8 °F 15% 30.04 in 10.0 mi West 10.4 mph - N/A   Clear
12:15 PM 77.0 °F - 24.8 °F 14% 30.03 in 10.0 mi WNW 12.7 mph 16.1 mph N/A   Clear
12:35 PM 78.8 °F - 24.8 °F 14% 30.02 in 10.0 mi WNW 15.0 mph - N/A   Clear
12:55 PM 78.8 °F - 24.8 °F 14% 30.01 in 10.0 mi West 16.1 mph 24.2 mph N/A   Clear
1:15 PM 80.6 °F - 23.0 °F 12% 30.00 in 10.0 mi West 17.3 mph 20.7 mph N/A   Clear
1:35 PM 80.6 °F - 21.2 °F 11% 29.99 in 10.0 mi WSW 19.6 mph 24.2 mph N/A   Clear
1:55 PM 80.6 °F - 21.2 °F 11% 29.99 in 10.0 mi WSW 16.1 mph 23.0 mph N/A   Clear
2:15 PM 80.6 °F - 21.2 °F 11% 29.98 in 10.0 mi WSW 15.0 mph 24.2 mph N/A   Clear
2:35 PM 80.6 °F - 21.2 °F 11% 29.98 in 10.0 mi West 18.4 mph 25.3 mph N/A   Clear
2:55 PM 80.6 °F - 19.4 °F 10% 29.98 in 10.0 mi West 17.3 mph 26.5 mph N/A   Clear
3:15 PM 80.6 °F - 19.4 °F 10% 29.98 in 10.0 mi WSW 12.7 mph 21.9 mph N/A   Clear
3:35 PM 78.8 °F - 19.4 °F 11% 29.98 in 10.0 mi West 10.4 mph - N/A   Clear
3:55 PM 78.8 °F - 19.4 °F 11% 29.97 in 10.0 mi West 9.2 mph - N/A   Clear
4:15 PM 78.8 °F - 19.4 °F 11% 29.97 in 10.0 mi West 11.5 mph - N/A   Clear
4:35 PM 78.8 °F - 19.4 °F 11% 29.97 in 10.0 mi West 12.7 mph - N/A   Clear
4:55 PM 77.0 °F - 17.6 °F 11% 29.97 in 10.0 mi West 6.9 mph - N/A   Clear
5:15 PM 75.2 °F - 17.6 °F 11% 29.98 in 10.0 mi West 8.1 mph - N/A   Clear
5:35 PM 71.6 °F - 15.8 °F 12% 29.98 in 10.0 mi SW 6.9 mph - N/A   Clear
5:55 PM 68.0 °F - 21.2 °F 17% 29.98 in 10.0 mi SW 5.8 mph - N/A   Clear
6:15 PM 66.2 °F - 17.6 °F 15% 29.99 in 10.0 mi SW 5.8 mph - N/A   Clear
6:35 PM 64.4 °F - 17.6 °F 16% 30.00 in 10.0 mi SW 4.6 mph - N/A   Clear
6:55 PM 62.6 °F - 17.6 °F 18% 30.00 in 10.0 mi WSW 3.5 mph - N/A   Clear
7:15 PM 62.6 °F - 17.6 °F 18% 30.01 in 10.0 mi SSW 4.6 mph - N/A   Clear
7:35 PM 62.6 °F - 19.4 °F 19% 30.01 in 10.0 mi Calm Calm - N/A   Clear
7:55 PM 60.8 °F - 17.6 °F 19% 30.01 in 10.0 mi Calm Calm - N/A   Clear
8:15 PM 57.2 °F - 17.6 °F 21% 30.01 in 10.0 mi Calm Calm - N/A   Clear
8:35 PM 57.2 °F - 17.6 °F 21% 30.03 in 10.0 mi NNE 12.7 mph - N/A   Clear
8:55 PM 57.2 °F - 19.4 °F 23% 30.04 in 10.0 mi NE 15.0 mph - N/A   Clear
9:15 PM 57.2 °F - 24.8 °F 29% 30.05 in 10.0 mi ENE 15.0 mph - N/A   Clear
9:35 PM 55.4 °F - 24.8 °F 31% 30.06 in 10.0 mi ENE 11.5 mph - N/A   Clear
9:55 PM 53.6 °F - 24.8 °F 33% 30.06 in 10.0 mi ENE 11.5 mph - N/A   Clear
10:15 PM 51.8 °F - 24.8 °F 35% 30.07 in 10.0 mi ENE 9.2 mph - N/A   Clear
10:35 PM 51.8 °F - 24.8 °F 35% 30.07 in 10.0 mi NE 11.5 mph - N/A   Clear
10:55 PM 50.0 °F - 24.8 °F 37% 30.07 in 10.0 mi NE 9.2 mph - N/A   Clear
11:15 PM 50.0 °F - 26.6 °F 40% 30.08 in 10.0 mi NE 8.1 mph - N/A   Clear
11:35 PM 48.2 °F - 24.8 °F 40% 30.09 in 10.0 mi ENE 9.2 mph - N/A   Clear
11:55 PM 46.4 °F 41.9 °F 26.6 °F 46% 30.09 in 8.0 mi ENE 9.2 mph - N/A   Clear